Ogden Hill AFB, UT

3:13 PM MDT on April 28, 2017 (GMT -0600)
Hill Air Force Base

Weather History for KHIF - February, 2013

Change the Weather History Date:

Wednesday, February 27, 2013

  Actual Average Record
Temperature  
Mean Temperature 24 °F -  
Max Temperature 32 °F 37 °F 60 °F (2006)
Min Temperature 15 °F 23 °F 12 °F (1998)
Degree Days  
Heating Degree Days 42    
Moisture  
Dew Point 8 °F    
Average Humidity 54    
Maximum Humidity 68    
Minimum Humidity 40    
Precipitation  
Precipitation 0.00 in - - ()
Sea Level Pressure  
Sea Level Pressure 30.48 in    
Wind  
Wind Speed 10 mph (ESE)    
Max Wind Speed 16 mph    
Max Gust Speed -    
Visibility 10 miles    
Events      
Averages and records for this station are not official NWS values.
T = Trace of Precipitation, MM = Missing Value Source: NWS Daily Summary

Daily Weather History Graph

Daily Weather History Graph

Search for Another Location

Airport or City:

Trip Planner

Search our weather history database for the weather conditions in past years. The results will help you decide how hot, cold, wet, or windy it might be!

Date:

Astronomy

Feb. 27, 2013 Rise Set
Actual Time 7:04 AM MST 6:16 PM MST
Civil Twilight 6:37 AM MST 6:44 PM MST
Nautical Twilight 6:05 AM MST 7:16 PM MST
Astronomical Twilight 5:33 AM MST 7:48 PM MST
Moon 8:44 PM MST (2/27) 7:40 AM MST (2/27)
Length of Visible Light 12h 07m
Length of Day
11h 12m
Waning Gibbous, 96% of the Moon is Illuminated
Feb 27
Waning Gibbous
Mar 4
Last Quarter
Mar 11
New
Mar 19
First Quarter
Mar 27
Full

Hourly Weather History & Observations

Time (MST) Temp. Windchill Dew Point Humidity Pressure Visibility Wind Dir Wind Speed Gust Speed Precip Events Conditions
12:58 AM 19.4 °F 7.2 °F 8.6 °F 63% 30.39 in 10.0 mi ESE 11.5 mph - N/A   Clear
1:58 AM 19.0 °F 5.6 °F 8.4 °F 63% 30.40 in 10.0 mi ESE 13.8 mph - N/A   Clear
2:58 AM 18.5 °F 5.5 °F 7.3 °F 62% 30.42 in 10.0 mi ESE 12.7 mph - N/A   Clear
3:58 AM 17.2 °F 3.9 °F 7.2 °F 65% 30.42 in 10.0 mi ESE 12.7 mph - N/A   Clear
4:58 AM 17.4 °F 2.9 °F 7.2 °F 64% 30.43 in 10.0 mi ESE 15.0 mph - N/A   Clear
5:58 AM 16.2 °F 1.3 °F 6.6 °F 66% 30.45 in 10.0 mi ESE 15.0 mph - N/A   Clear
6:58 AM 15.3 °F 0.8 °F 6.3 °F 68% 30.48 in 10.0 mi ESE 13.8 mph - N/A   Clear
7:58 AM 15.4 °F -0.1 °F 5.9 °F 66% 30.50 in 10.0 mi ESE 16.1 mph - N/A   Clear
8:58 AM 18.5 °F 5.5 °F 7.2 °F 61% 30.52 in 10.0 mi ESE 12.7 mph - N/A   Clear
9:58 AM 21.6 °F 10.6 °F 8.1 °F 56% 30.52 in 10.0 mi ESE 10.4 mph - N/A   Clear
10:58 AM 25.0 °F 17.1 °F 9.1 °F 51% 30.52 in 10.0 mi East 6.9 mph - N/A   Clear
11:58 AM 27.9 °F - 10.4 °F 48% 30.51 in 10.0 mi Calm Calm - N/A   Clear
12:58 PM 30.2 °F 26.7 °F 11.3 °F 45% 30.51 in 10.0 mi WSW 3.5 mph - N/A   Clear
1:58 PM 31.1 °F - 10.9 °F 43% 30.48 in 10.0 mi WNW 2.3 mph - N/A   Clear
2:58 PM 32.0 °F 26.4 °F 10.2 °F 40% 30.49 in 10.0 mi WNW 5.8 mph - N/A   Clear
3:58 PM 31.8 °F 27.3 °F 10.2 °F 41% 30.48 in 10.0 mi West 4.6 mph - N/A   Clear
4:58 PM 31.1 °F - 9.0 °F 40% 30.48 in 10.0 mi West 2.3 mph - N/A   Clear
5:58 PM 29.8 °F - 7.9 °F 40% 30.49 in 10.0 mi WSW 1.2 mph - N/A   Clear
6:58 PM 27.0 °F - 7.3 °F 44% 30.51 in 10.0 mi Calm Calm - N/A   Clear
7:58 PM 25.7 °F - 9.1 °F 50% 30.51 in 10.0 mi North 2.3 mph - N/A   Clear
8:58 PM 23.7 °F 19.3 °F 9.9 °F 56% 30.51 in 10.0 mi East 3.5 mph - N/A   Clear
9:58 PM 23.4 °F 14.3 °F 7.3 °F 50% 30.51 in 10.0 mi East 8.1 mph - N/A   Clear
10:58 PM 21.7 °F 10.8 °F 6.1 °F 51% 30.52 in 10.0 mi ESE 10.4 mph - N/A   Clear
11:58 PM 21.7 °F 10.8 °F 7.2 °F 54% 30.51 in 10.0 mi ESE 10.4 mph - N/A   Clear